[[{"header":{"parameterUnit":"m.s-1","parameterCategory":1,"la1":30.2991,"la2":30.254,"lo1":-89.0895,"lo2":-89.0444,"dy":0.0017,"dx":0.0017,"nx":28,"ny":28,"refTime":"2023-10-10T09:00:00:Z","depth":0,"parameterNumber":2,"parameterNumberName":"U-component_of_WINDS"},"data":[0,0,0,0,0,0,0,0,0,0,0,0,0,0,0,0,0,0,0,0,0,0,0,0,0,0,0,0,0,0,0,0,0,0,0,0,0,0,0,0,0,0,0,0,0,0,0,0,0,0,0,0,0,0,0,0,0,0,-0.1191,-0.119,0,-0.1086,-0.1085,-0.1084,-0.1024,-0.1024,-0.1024,-0.1023,-0.0915,-0.0913,-0.091,0,0,0,0,0,0,0,0,0,0,0,0,0,-0.1341,-0.1338,-0.1191,-0.119,-0.1188,-0.1086,-0.1085,-0.1083,-0.1024,-0.1024,-0.1024,-0.1023,-0.0916,-0.0913,-0.091,0,0,0,0,0,0,0,0,0,0,0,0,0,-0.126,-0.1337,-0.1191,-0.1147,-0.1141,-0.1086,-0.1085,-0.1083,-0.1024,-0.1024,-0.1024,-0.1023,-0.0917,-0.0913,-0.0909,-0.089,0,0,-0.0897,-0.0895,0,0,0,0,0,0,0,0,-0.1264,-0.1254,-0.1154,-0.115,-0.1144,-0.1068,-0.1098,-0.1018,-0.1024,-0.1069,-0.1023,-0.1023,-0.0966,-0.0958,-0.0939,-0.0885,-0.0881,-0.0897,-0.0894,-0.0892,-0.0891,0,0,0,0,0,0,0,-0.127,-0.1258,-0.1149,-0.1153,-0.1147,-0.1132,-0.112,-0.1082,-0.102,-0.1065,-0.106,-0.1049,-0.0963,-0.0943,-0.0936,-0.0879,-0.0897,-0.0893,-0.0891,-0.0889,-0.0806,-0.0806,0,0,0,0,0,0,-0.1283,-0.1264,-0.1153,-0.1146,-0.1205,-0.1129,-0.1116,-0.1092,-0.1021,-0.1009,-0.1049,-0.1046,-0.095,-0.0941,-0.0932,-0.0906,-0.0892,-0.0889,-0.0886,-0.0806,-0.0806,-0.0806,0,0,0,0,0,0,-0.1286,-0.1274,-0.1157,-0.1204,-0.1188,-0.1127,-0.1101,-0.1091,-0.107,-0.1009,-0.0997,-0.104,-0.095,-0.0938,-0.0902,-0.0901,-0.0887,-0.0883,-0.0806,-0.0806,-0.0806,-0.0854,0,0,0,0,0,0,-0.1291,-0.1275,-0.1267,-0.1204,-0.1185,-0.1128,-0.1101,-0.1089,-0.1064,-0.1059,-0.0997,-0.0987,-0.0948,-0.0908,-0.0898,-0.0896,-0.088,-0.0805,-0.0806,-0.0806,-0.0852,-0.0856,-0.0859,0,0,0,0,0,-0.1296,-0.1284,-0.1267,-0.1254,-0.1174,-0.1128,-0.1118,-0.1074,-0.1064,-0.1056,-0.1016,-0.0988,-0.0903,-0.0905,-0.0893,-0.0889,-0.0805,-0.0806,-0.0806,-0.085,-0.0855,-0.0859,0,0,0,0,0,0,-0.1349,-0.1275,-0.1255,-0.1222,-0.1182,-0.1118,-0.1106,-0.108,-0.1042,-0.1039,-0.0987,-0.0974,-0.0943,-0.0912,-0.0915,-0.0868,-0.0851,-0.0849,-0.0889,-0.0893,-0.0896,-0.0904,-0.0877,0,0,0,0,0,-0.1356,-0.1325,-0.1263,-0.124,-0.1221,-0.1167,-0.1146,-0.1116,-0.1072,-0.1055,-0.1012,-0.0971,-0.0935,-0.0912,-0.0875,-0.0847,-0.0833,-0.0839,-0.0843,-0.0846,-0.0845,-0.0829,-0.0831,-0.0808,-0.0808,-0.0808,0,0,-0.1372,-0.1328,-0.1311,-0.1249,-0.1214,-0.1184,-0.1153,-0.1122,-0.1099,-0.105,-0.1013,-0.0981,-0.0931,-0.09,-0.0883,-0.0873,-0.0848,-0.0847,-0.085,-0.0847,-0.083,-0.0832,-0.0834,-0.0808,-0.0808,-0.0808,0,0,-0.1385,-0.1348,-0.1325,-0.1291,-0.124,-0.1204,-0.1199,-0.114,-0.1117,-0.1079,-0.1043,-0.1014,-0.0953,-0.0919,-0.0894,-0.0896,-0.087,-0.0886,-0.0904,-0.0889,-0.0891,-0.0892,-0.0894,-0.0895,-0.0885,-0.0885,-0.0885,0,-0.141,-0.1362,-0.1317,-0.1288,-0.1262,-0.1217,-0.1194,-0.1163,-0.1102,-0.1086,-0.1075,-0.0998,-0.0962,-0.0922,-0.0923,-0.0904,-0.0897,-0.0892,-0.0894,-0.0895,-0.0896,-0.0897,-0.0897,-0.0887,-0.0887,-0.0887,-0.0887,0,-0.1397,-0.1365,-0.1353,-0.1296,-0.1268,-0.1243,-0.1193,-0.1171,-0.1144,-0.1111,-0.1074,-0.1029,-0.0982,-0.0971,-0.0944,-0.0928,-0.0923,-0.0904,-0.0886,-0.0901,-0.0901,-0.0901,-0.0891,-0.089,-0.0889,-0.0889,0,0,-0.1439,-0.1358,-0.1355,-0.1329,-0.1269,-0.1243,-0.1216,-0.1171,-0.1154,-0.1113,-0.1089,-0.1039,-0.1022,-0.0994,-0.0963,-0.095,-0.0955,-0.0932,-0.093,-0.0939,-0.0936,-0.0951,-0.0952,-0.0937,-0.0937,-0.0937,-0.0941,0,-0.1444,-0.1392,-0.1351,-0.1315,-0.1286,-0.1243,-0.1219,-0.118,-0.1148,-0.1119,-0.1083,-0.1049,-0.1028,-0.1011,-0.0996,-0.0958,-0.0954,-0.0957,-0.0915,-0.0914,-0.093,-0.0952,-0.0967,-0.0973,-0.094,-0.094,-0.094,0,-0.1442,-0.1404,-0.1366,-0.131,-0.1296,-0.1276,-0.1232,-0.1204,-0.1159,-0.1137,-0.1106,-0.1074,-0.1044,-0.1029,-0.0987,-0.099,-0.0971,-0.095,-0.0949,-0.0944,-0.0928,-0.0948,-0.0973,-0.0974,-0.0939,-0.0939,-0.094,0,-0.1478,-0.1417,-0.1386,-0.1365,-0.13,-0.1286,-0.1258,-0.1213,-0.119,-0.1152,-0.1136,-0.1095,-0.1073,-0.1042,-0.1,-0.0993,-0.0963,-0.0944,-0.0944,-0.0945,-0.094,-0.0941,-0.0963,-0.0927,-0.0927,-0.0927,-0.0927,0,-0.1487,-0.1466,-0.1402,-0.1383,-0.1358,-0.1311,-0.1287,-0.1256,-0.1216,-0.1191,-0.1152,-0.1129,-0.1075,-0.1046,-0.1013,-0.0984,-0.0973,-0.0955,-0.0947,-0.0959,-0.0961,-0.0946,-0.0944,-0.0927,-0.0927,-0.0927,-0.0927,0,-0.1523,-0.1479,-0.1443,-0.1384,-0.1369,-0.1353,-0.1303,-0.1283,-0.125,-0.1218,-0.1208,-0.1155,-0.1119,-0.1074,-0.1023,-0.1001,-0.0976,-0.0963,-0.0991,-0.0986,-0.0989,-0.099,-0.1002,-0.1002,-0.0966,-0.0966,-0.0967,0,-0.1532,-0.1515,-0.1454,-0.1435,-0.1408,-0.1377,-0.1353,-0.1306,-0.1283,-0.1232,-0.1219,-0.1179,-0.1146,-0.109,-0.1047,-0.1009,-0.0994,-0.1002,-0.0988,-0.1002,-0.0996,-0.0997,-0.0996,-0.1005,-0.1006,-0.1006,-0.1007,0,-0.1554,-0.1533,-0.15,-0.146,-0.1432,-0.1398,-0.1362,-0.1348,-0.1295,-0.127,-0.1233,-0.1207,-0.1156,-0.1118,-0.1074,-0.1045,-0.1018,-0.1011,-0.1009,-0.1022,-0.1039,-0.1031,-0.1001,-0.1011,-0.1011,-0.101,-0.101,-0.101,-0.1577,-0.156,-0.1515,-0.1479,-0.1448,-0.1416,-0.1395,-0.1359,-0.1327,-0.1282,-0.1257,-0.1221,-0.1177,-0.1116,-0.1088,-0.106,-0.1049,-0.1046,-0.1045,-0.1046,-0.105,-0.1044,-0.1051,-0.1051,-0.1051,-0.1051,-0.1051,0,-0.1597,-0.1566,-0.1534,-0.1486,-0.1458,-0.1435,-0.1394,-0.1373,-0.1342,-0.1304,-0.1272,-0.123,-0.1193,-0.1148,-0.1108,-0.1094,-0.1081,-0.1086,-0.1086,-0.1081,-0.1061,-0.1067,-0.1097,-0.1097,-0.1097,-0.1097,-0.1097,-0.1097,-0.1604,-0.1575,-0.1549,-0.1504,-0.1473,-0.1437,-0.1417,-0.1387,-0.1357,-0.1312,-0.1281,-0.1252,-0.1212,-0.1169,-0.1135,-0.1122,-0.111,-0.1119,-0.1103,-0.1086,-0.1082,-0.1078,-0.1083,-0.1117,-0.1117,-0.1125,-0.1125,-0.1125]},{"header":{"parameterUnit":"m.s-1","parameterCategory":1,"la1":30.2991,"la2":30.254,"lo1":-89.0895,"lo2":-89.0444,"dy":0.0017,"dx":0.0017,"nx":28,"ny":28,"refTime":"2023-10-10T09:00:00:Z","depth":0,"parameterNumber":3,"parameterNumberName":"V-component_of_WINDS"},"data":[0,0,0,0,0,0,0,0,0,0,0,0,0,0,0,0,0,0,0,0,0,0,0,0,0,0,0,0,0,0,0,0,0,0,0,0,0,0,0,0,0,0,0,0,0,0,0,0,0,0,0,0,0,0,0,0,0,0,2.692,2.692,0,2.6872,2.6872,2.6871,2.6891,2.6892,2.6893,2.6894,2.6838,2.6836,2.6833,0,0,0,0,0,0,0,0,0,0,0,0,0,2.7023,2.7021,2.692,2.692,2.6919,2.6872,2.6872,2.6871,2.6891,2.6892,2.6894,2.6895,2.6839,2.6836,2.6833,0,0,0,0,0,0,0,0,0,0,0,0,0,2.6977,2.7021,2.692,2.6924,2.6923,2.6872,2.6872,2.6871,2.689,2.6892,2.6894,2.6896,2.684,2.6837,2.6833,2.6774,0,0,2.6821,2.6819,0,0,0,0,0,0,0,0,2.698,2.6973,2.6924,2.6923,2.6923,2.689,2.6887,2.6838,2.689,2.6903,2.6894,2.6896,2.6854,2.6849,2.6836,2.6771,2.6769,2.6821,2.6818,2.6817,2.6815,0,0,0,0,0,0,0,2.6983,2.6975,2.6901,2.6923,2.6922,2.6925,2.6921,2.6878,2.6869,2.6902,2.6903,2.6897,2.6854,2.6839,2.6834,2.6768,2.6821,2.6817,2.6815,2.6813,2.6653,2.6651,0,0,0,0,0,0,2.6987,2.6978,2.6903,2.69,2.6956,2.6922,2.6917,2.6898,2.6869,2.6867,2.6896,2.6899,2.6845,2.6839,2.6833,2.6762,2.6817,2.6813,2.6811,2.6655,2.6652,2.665,0,0,0,0,0,0,2.6989,2.698,2.6905,2.6939,2.693,2.6919,2.6897,2.6896,2.6882,2.6865,2.6863,2.6884,2.6846,2.6838,2.6789,2.676,2.6811,2.6808,2.6657,2.6654,2.6651,2.662,0,0,0,0,0,0,2.6992,2.6981,2.696,2.6939,2.6928,2.6863,2.6896,2.6894,2.6876,2.6879,2.6853,2.685,2.6847,2.6794,2.6785,2.6756,2.6805,2.6659,2.6656,2.6652,2.6623,2.6616,2.661,0,0,0,0,0,2.6996,2.6951,2.6958,2.6949,2.6902,2.6862,2.6855,2.6855,2.6874,2.6852,2.6841,2.6851,2.6765,2.6789,2.6779,2.6748,2.6661,2.6657,2.6652,2.6626,2.6617,2.661,0,0,0,0,0,0,2.6966,2.6948,2.6956,2.6904,2.6885,2.6865,2.6837,2.6845,2.6818,2.6821,2.682,2.6814,2.6763,2.675,2.6778,2.6689,2.6716,2.6709,2.6699,2.6691,2.6684,2.6688,2.6801,0,0,0,0,0,2.6954,2.6926,2.691,2.6866,2.6856,2.6848,2.6831,2.6832,2.6811,2.6802,2.6787,2.6764,2.6732,2.6711,2.668,2.6622,2.6616,2.6595,2.6589,2.6583,2.6577,2.6545,2.6536,2.6636,2.6636,2.6636,0,0,2.6928,2.6915,2.6896,2.686,2.6845,2.6813,2.6841,2.6806,2.6782,2.6796,2.6749,2.6737,2.6712,2.6658,2.6633,2.6646,2.6548,2.6578,2.6574,2.657,2.6539,2.653,2.6522,2.6633,2.6633,2.6634,0,0,2.6865,2.6852,2.6814,2.6799,2.6777,2.6772,2.6763,2.6742,2.6736,2.6689,2.6699,2.6669,2.6614,2.6596,2.6579,2.6509,2.6517,2.6499,2.6464,2.6433,2.6425,2.6418,2.6392,2.6383,2.6493,2.6493,2.6493,0,2.6834,2.6789,2.6792,2.6757,2.674,2.6754,2.6714,2.6699,2.6666,2.6654,2.6669,2.6601,2.6584,2.6526,2.6509,2.6495,2.6483,2.6502,2.6426,2.6419,2.6412,2.6388,2.6379,2.6491,2.6491,2.6492,2.6492,0,2.6753,2.6721,2.6692,2.6664,2.6644,2.6606,2.6602,2.6581,2.6584,2.6577,2.6529,2.6511,2.6477,2.6463,2.6465,2.6405,2.6413,2.6427,2.6454,2.6401,2.6378,2.6369,2.6488,2.6489,2.649,2.649,0,0,2.6668,2.6644,2.6633,2.662,2.6597,2.6572,2.6534,2.6503,2.6485,2.6462,2.643,2.6384,2.6397,2.6378,2.6378,2.635,2.6296,2.6368,2.6367,2.6355,2.6228,2.6218,2.6207,2.6302,2.63,2.6299,2.623,0,2.6603,2.654,2.6542,2.6483,2.6453,2.6466,2.6433,2.6414,2.6407,2.6379,2.637,2.6338,2.6358,2.6346,2.632,2.6308,2.627,2.6313,2.627,2.6268,2.6276,2.6195,2.6184,2.612,2.6221,2.622,2.6219,0,2.6518,2.6495,2.6434,2.6416,2.6403,2.6374,2.6346,2.632,2.6298,2.6295,2.6275,2.6279,2.6239,2.6268,2.6212,2.6241,2.6224,2.6215,2.6213,2.6208,2.624,2.6188,2.61,2.609,2.6205,2.6206,2.6207,0,2.6462,2.6416,2.6373,2.6362,2.634,2.6319,2.6309,2.6289,2.6271,2.6245,2.6233,2.6203,2.6186,2.6162,2.6157,2.6178,2.6101,2.6129,2.6096,2.6096,2.6078,2.6079,2.5986,2.6068,2.6068,2.6068,2.6068,0,2.6389,2.635,2.6348,2.6322,2.6279,2.6281,2.6238,2.6228,2.6211,2.6182,2.619,2.6162,2.6159,2.6129,2.6125,2.6079,2.6071,2.6066,2.6066,2.6065,2.6066,2.6053,2.6057,2.6066,2.6066,2.6067,2.6067,0,2.6319,2.6316,2.6271,2.6254,2.6249,2.6218,2.6203,2.6177,2.6171,2.6134,2.6125,2.6115,2.6081,2.6074,2.6033,2.603,2.5976,2.598,2.5984,2.5984,2.5951,2.5954,2.5846,2.5831,2.5923,2.5922,2.5921,0,2.6272,2.6243,2.6224,2.6207,2.6196,2.6167,2.6149,2.6149,2.6129,2.6103,2.608,2.6047,2.6021,2.5965,2.5953,2.5921,2.5924,2.5888,2.5919,2.592,2.5923,2.5924,2.5921,2.5882,2.5881,2.588,2.5879,0,2.6189,2.6189,2.6164,2.6138,2.6117,2.6096,2.6076,2.606,2.6058,2.6035,2.6002,2.5981,2.5941,2.5907,2.5876,2.5863,2.587,2.587,2.5861,2.586,2.5863,2.586,2.5967,2.5872,2.5873,2.5873,2.5874,2.5874,2.6128,2.6104,2.6087,2.6058,2.6044,2.6026,2.6001,2.5993,2.5965,2.5934,2.5935,2.5898,2.5877,2.5836,2.5821,2.5791,2.5802,2.5788,2.5785,2.5781,2.5778,2.5869,2.5785,2.5785,2.5785,2.5786,2.5786,0,2.6045,2.6036,2.601,2.5983,2.596,2.5972,2.595,2.593,2.5898,2.5879,2.5854,2.5815,2.5783,2.5769,2.5737,2.5715,2.5717,2.5707,2.5708,2.5704,2.577,2.5781,2.5705,2.5705,2.5705,2.5705,2.5705,2.5705,2.6,2.5958,2.5957,2.5908,2.5898,2.5864,2.585,2.5833,2.5818,2.5775,2.5749,2.5741,2.5723,2.5691,2.5661,2.5658,2.5645,2.5633,2.563,2.5692,2.57,2.5708,2.5718,2.563,2.563,2.5567,2.5567,2.5566]}]]